Weather History for Majunga, Madagascar

Change the Weather History Date:

Friday, February 8, 2013

  Actual Average Record
Temperature  
Mean Temperature 84 °F -  
Max Temperature 89 °F 88 °F - ()
Min Temperature 78 °F 75 °F - ()
Cooling Degree Days 18    
Growing Degree Days 34 (Base 50)    
Moisture  
Dew Point 77 °F    
Average Humidity 79    
Maximum Humidity 89    
Minimum Humidity 59    
Precipitation  
Precipitation 0.00 in 0.44 in - ()
Sea Level Pressure  
Sea Level Pressure 29.81 in    
Wind  
Wind Speed 5 mph ()    
Max Wind Speed 14 mph    
Max Gust Speed -    
Visibility 7.2 miles    
Events Thunderstorm    
T = Trace of Precipitation, MM = Missing Value Source: Averaged Metar Reports

Daily Weather History Graph

Daily Weather History Graph

Search for Another Location

Airport:

Trip Planner

Search our weather history database for the weather conditions in past years. The results will help you decide how hot, cold, wet, or windy it might be!

Date:

Astronomy

Feb. 08, 2013 Rise Set
Actual Time 5:47 AM EAT 6:29 PM EAT
Civil Twilight 5:25 AM EAT 6:51 PM EAT
Nautical Twilight 4:59 AM EAT 7:18 PM EAT
Astronomical Twilight 4:32 AM EAT 7:44 PM EAT
Moon 3:40 AM EAT (2/8) 4:48 PM EAT (2/8)
Length of Visible Light 13h 26m
Length of Day
12h 41m
Waning Crescent, 5% of the Moon is Illuminated
Feb 8
Waning Crescent
Feb 10
New
Feb 17
First Quarter
Feb 25
Full
Mar 5
Last Quarter

Hourly Weather History & Observations

Time (EAT) Temp. Heat Index Dew Point Humidity Pressure Visibility Wind Dir Wind Speed Gust Speed Precip Events Conditions
12:00 AM 82.4 °F 92.4 °F 78.8 °F 89% 29.83 in 6.2 mi West 2.3 mph - N/A   Scattered Clouds
1:00 AM 82.4 °F 92.4 °F 78.8 °F 89% 29.83 in 6.2 mi West 2.3 mph - N/A   Scattered Clouds
2:00 AM 82.4 °F 92.4 °F 78.8 °F 89% 29.83 in 6.2 mi West 2.3 mph - N/A   Scattered Clouds
3:00 AM 81 °F - 77 °F 84% 29.82 in 19 mi SSW 2.3 mph - -   Partly Cloudy
3:00 AM 80.6 °F 87.1 °F 77.0 °F 89% 29.80 in 6.2 mi SSW 2.3 mph - N/A Thunderstorm Thunderstorm
4:00 AM 80.6 °F 87.1 °F 77.0 °F 89% 29.80 in 6.2 mi SSW 2.3 mph - N/A Thunderstorm Thunderstorm
5:00 AM 80.6 °F 87.1 °F 77.0 °F 89% 29.80 in 6.2 mi SSW 2.3 mph - N/A Thunderstorm Thunderstorm
6:00 AM 78.8 °F - 75.2 °F 89% 29.80 in 6.2 mi South 4.6 mph - N/A   Scattered Clouds
7:00 AM 80.6 °F 87.1 °F 77.0 °F 89% 29.83 in 6.2 mi SE 2.3 mph - N/A   Scattered Clouds
8:00 AM 82.4 °F 92.4 °F 78.8 °F 89% 29.83 in 6.2 mi South 4.6 mph - N/A   Mostly Cloudy
9:00 AM 84.2 °F 94.1 °F 77.0 °F 79% 29.86 in 6.2 mi South 4.6 mph - N/A   Mostly Cloudy
10:00 AM 86.0 °F 93.4 °F 73.4 °F 66% 29.83 in 6.2 mi South 4.6 mph - N/A   Mostly Cloudy
11:00 AM 87.8 °F 95.6 °F 73.4 °F 62% 29.83 in 6.2 mi NW 4.6 mph - N/A   Mostly Cloudy
12:00 PM 89.6 °F 98.2 °F 73.4 °F 59% 29.83 in 6.2 mi West 9.2 mph - N/A   Mostly Cloudy
1:00 PM 89.6 °F 104.7 °F 78.8 °F 70% 29.83 in 6.2 mi West 11.5 mph - N/A   Scattered Clouds
2:00 PM 89.6 °F 104.7 °F 78.8 °F 70% 29.80 in 6.2 mi West 11.5 mph - N/A   Scattered Clouds
3:00 PM 89 °F - 78 °F 63% 29.80 in 25 mi West 13.8 mph - -   Scattered Clouds
3:00 PM 89.6 °F 102.2 °F 77.0 °F 66% 29.77 in 6.2 mi West 13.8 mph - N/A   Scattered Clouds
4:00 PM 87.8 °F 102.5 °F 78.8 °F 75% 29.77 in 6.2 mi West 13.8 mph - N/A   Scattered Clouds
5:00 PM 87.8 °F 102.5 °F 78.8 °F 75% 29.77 in 6.2 mi West 9.2 mph - N/A   Scattered Clouds
6:00 PM 86.0 °F 99.3 °F 78.8 °F 79% 29.77 in 6.2 mi West 9.2 mph - N/A   Mostly Cloudy
7:00 PM 84.2 °F 96.1 °F 78.8 °F 84% 29.77 in 6.2 mi West 9.2 mph - N/A   Scattered Clouds
8:00 PM 82.4 °F 92.4 °F 78.8 °F 89% 29.80 in 6.2 mi West 9.2 mph - N/A   Scattered Clouds
9:00 PM 83 °F - 78 °F 79% 29.81 in 19 mi West 9.2 mph - -   Partly Cloudy
9:00 PM 84.2 °F 94.1 °F 77.0 °F 79% 29.80 in 6.2 mi West 9.2 mph - N/A   Scattered Clouds
10:00 PM 84.2 °F 94.1 °F 77.0 °F 79% 29.80 in 6.2 mi West 9.2 mph - N/A   Scattered Clouds
11:00 PM 84.2 °F 94.1 °F 77.0 °F 79% 29.80 in 6.2 mi West 9.2 mph - N/A   Scattered Clouds